• In Deutschland
  • Länderverzeichnis
  • Für 7 Tage
  • Wassertemperatur
  • Satellitenkarten
  • Wetterkarte
  • Widgets
  • user-avatar
    Anmelden

    Stündliche Wetter Sydney

    Heute, 20 Oktober, Freitag

    Zeit Temperatur Niederschläge Wind Luftdruck Luftfeuchtigkeit
    00:00 +20°C° 0 mm 3 m/S 763 mmHg 80%
    01:00 +20°C° 0 mm 2 m/S 763 mmHg 83%
    02:00 +20°C° 0,5 mm 2 m/S 762 mmHg 85%
    03:00 +20°C° 0,5 mm 2 m/S 762 mmHg 87%
    04:00 +20°C° 0 mm 2 m/S 762 mmHg 89%
    05:00 +20°C° 2,3 mm 2 m/S 763 mmHg 91%
    06:00 +20°C° 2,3 mm 2 m/S 763 mmHg 93%
    07:00 +21°C° 2,3 mm 1 m/S 763 mmHg 95%
    08:00 +20°C° 1,7 mm 2 m/S 763 mmHg 94%
    09:00 +20°C° 1,7 mm 3 m/S 763 mmHg 93%
    10:00 +17°C° 0 mm 7 m/S 764 mmHg 89%
    11:00 +17°C° 1 mm 7 m/S 764 mmHg 90%
    12:00 +16°C° 1 mm 8 m/S 764 mmHg 90%
    13:00 +15°C° 1 mm 8 m/S 764 mmHg 91%
    14:00 +15°C° 1 mm 8 m/S 764 mmHg 91%
    15:00 +15°C° 1 mm 8 m/S 764 mmHg 91%
    16:00 +15°C° 0 mm 7 m/S 765 mmHg 88%
    17:00 +15°C° 0,4 mm 7 m/S 765 mmHg 88%
    18:00 +15°C° 0,4 mm 7 m/S 765 mmHg 87%
    19:00 +14°C° 0,4 mm 6 m/S 766 mmHg 86%
    20:00 +14°C° 0 mm 6 m/S 766 mmHg 85%
    21:00 +14°C° 0 mm 6 m/S 766 mmHg 83%
    22:00 +14°C° 0 mm 7 m/S 767 mmHg 80%
    23:00 +14°C° 0 mm 7 m/S 767 mmHg 79%

    Morgen, 21 Oktober, Samstag

    Zeit Temperatur Niederschläge Wind Luftdruck Luftfeuchtigkeit
    00:00 +14°C° 0 mm 7 m/S 767 mmHg 78%
    01:00 +14°C° 0 mm 7 m/S 766 mmHg 76%
    02:00 +12°C° 0 mm 7 m/S 766 mmHg 77%
    03:00 +11°C° 0 mm 6 m/S 766 mmHg 79%
    04:00 +10°C° 0 mm 6 m/S 766 mmHg 80%
    05:00 +11°C° 0,1 mm 6 m/S 766 mmHg 76%
    06:00 +11°C° 0,1 mm 6 m/S 766 mmHg 73%
    07:00 +13°C° 0,1 mm 6 m/S 766 mmHg 70%
    08:00 +14°C° 0,1 mm 6 m/S 765 mmHg 66%
    09:00 +16°C° 0,1 mm 6 m/S 765 mmHg 62%
    10:00 +17°C° 0,1 mm 6 m/S 765 mmHg 58%
    11:00 +19°C° 0,1 mm 5 m/S 764 mmHg 57%
    12:00 +19°C° 0,1 mm 5 m/S 764 mmHg 56%
    13:00 +20°C° 0,1 mm 5 m/S 763 mmHg 55%
    14:00 +20°C° 0,1 mm 5 m/S 763 mmHg 55%
    15:00 +20°C° 0,1 mm 5 m/S 763 mmHg 54%
    16:00 +20°C° 0,1 mm 5 m/S 762 mmHg 54%
    17:00 +18°C° 0 mm 4 m/S 762 mmHg 63%
    18:00 +17°C° 0 mm 4 m/S 762 mmHg 71%
    19:00 +14°C° 0 mm 3 m/S 762 mmHg 80%
    20:00 +14°C° 0 mm 3 m/S 762 mmHg 82%
    21:00 +14°C° 0 mm 2 m/S 763 mmHg 83%
    22:00 +14°C° 0 mm 2 m/S 763 mmHg 85%
    23:00 +14°C° 0 mm 2 m/S 762 mmHg 85%

    übermorgen, 22 Oktober, Sonntag

    Zeit Temperatur Niederschläge Wind Luftdruck Luftfeuchtigkeit
    00:00 +14°C° 0 mm 2 m/S 762 mmHg 85%
    01:00 +14°C° 0 mm 2 m/S 761 mmHg 85%
    02:00 +14°C° 0 mm 2 m/S 761 mmHg 86%
    03:00 +14°C° 0 mm 2 m/S 760 mmHg 86%
    04:00 +13°C° 0 mm 2 m/S 760 mmHg 87%
    05:00 +14°C° 0 mm 2 m/S 760 mmHg 82%
    06:00 +15°C° 0 mm 2 m/S 760 mmHg 77%
    07:00 +16°C° 0 mm 2 m/S 760 mmHg 72%
    08:00 +20°C° 0 mm 1 m/S 760 mmHg 62%
    09:00 +22°C° 0 mm 1 m/S 759 mmHg 52%
    10:00 +25°C° 0 mm 1 m/S 759 mmHg 42%
    11:00 +25°C° 0 mm 2 m/S 759 mmHg 39%
    12:00 +26°C° 0 mm 2 m/S 758 mmHg 37%
    13:00 +26°C° 0 mm 3 m/S 758 mmHg 35%
    14:00 +25°C° 0,1 mm 4 m/S 757 mmHg 43%
    15:00 +22°C° 0,1 mm 4 m/S 757 mmHg 51%
    16:00 +21°C° 0,1 mm 5 m/S 757 mmHg 59%
    17:00 +19°C° 0,2 mm 5 m/S 757 mmHg 66%
    18:00 +18°C° 0,2 mm 4 m/S 758 mmHg 73%
    19:00 +15°C° 0,2 mm 4 m/S 759 mmHg 81%
    20:00 +15°C° 0,1 mm 4 m/S 759 mmHg 81%
    21:00 +15°C° 0,1 mm 4 m/S 760 mmHg 82%
    22:00 +15°C° 0,1 mm 4 m/S 760 mmHg 83%
    23:00 +14°C° 0,1 mm 4 m/S 760 mmHg 84%

    23 Oktober, Montag

    Zeit Temperatur Niederschläge Wind Luftdruck Luftfeuchtigkeit
    00:00 +14°C° 0,1 mm 4 m/S 760 mmHg 85%
    01:00 +14°C° 0,1 mm 4 m/S 760 mmHg 87%
    02:00 +13°C° 0 mm 4 m/S 760 mmHg 88%
    03:00 +13°C° 0 mm 4 m/S 760 mmHg 89%
    04:00 +12°C° 0 mm 4 m/S 760 mmHg 90%
    05:00 +13°C° 0 mm 4 m/S 760 mmHg 86%
    06:00 +14°C° 0 mm 4 m/S 761 mmHg 81%
    07:00 +15°C° 0 mm 4 m/S 761 mmHg 76%
    08:00 +18°C° 0 mm 4 m/S 761 mmHg 64%
    09:00 +21°C° 0 mm 4 m/S 761 mmHg 53%
    10:00 +23°C° 0 mm 4 m/S 762 mmHg 41%
    11:00 +25°C° 0 mm 4 m/S 761 mmHg 39%
    12:00 +26°C° 0 mm 4 m/S 761 mmHg 37%
    13:00 +27°C° 0 mm 4 m/S 761 mmHg 35%
    14:00 +26°C° 0 mm 4 m/S 761 mmHg 39%
    15:00 +25°C° 0 mm 4 m/S 761 mmHg 42%
    16:00 +23°C° 0 mm 4 m/S 760 mmHg 46%
    17:00 +21°C° 0 mm 3 m/S 761 mmHg 54%
    18:00 +19°C° 0 mm 3 m/S 761 mmHg 61%
    19:00 +17°C° 0 mm 2 m/S 762 mmHg 69%
    20:00 +16°C° 0 mm 2 m/S 762 mmHg 73%
    21:00 +16°C° 0 mm 2 m/S 763 mmHg 77%
    22:00 +15°C° 0 mm 1 m/S 763 mmHg 80%
    23:00 +15°C° 0 mm 2 m/S 763 mmHg 82%

    24 Oktober, Dienstag

    Zeit Temperatur Niederschläge Wind Luftdruck Luftfeuchtigkeit
    00:00 +14°C° 0 mm 2 m/S 763 mmHg 84%
    01:00 +14°C° 0 mm 2 m/S 762 mmHg 86%
    02:00 +14°C° 0 mm 2 m/S 762 mmHg 87%
    03:00 +14°C° 0 mm 2 m/S 762 mmHg 88%
    04:00 +12°C° 0 mm 3 m/S 762 mmHg 89%
    05:00 +14°C° 0 mm 3 m/S 762 mmHg 81%
    06:00 +17°C° 0 mm 3 m/S 762 mmHg 74%
    07:00 +18°C° 0 mm 3 m/S 763 mmHg 66%
    08:00 +21°C° 0 mm 3 m/S 762 mmHg 55%
    09:00 +26°C° 0 mm 3 m/S 762 mmHg 44%
    10:00 +29°C° 0 mm 3 m/S 762 mmHg 33%
    11:00 +30°C° 0 mm 4 m/S 761 mmHg 31%
    12:00 +32°C° 0 mm 4 m/S 761 mmHg 28%
    13:00 +33°C° 0 mm 5 m/S 760 mmHg 25%
    14:00 +30°C° 0 mm 5 m/S 759 mmHg 31%
    15:00 +29°C° 0 mm 5 m/S 759 mmHg 37%
    16:00 +27°C° 0 mm 6 m/S 759 mmHg 43%
    17:00 +26°C° 0 mm 5 m/S 759 mmHg 50%
    18:00 +23°C° 0 mm 5 m/S 760 mmHg 58%
    19:00 +21°C° 0 mm 4 m/S 760 mmHg 65%
    20:00 +20°C° 0 mm 3 m/S 760 mmHg 67%
    21:00 +20°C° 0 mm 3 m/S 760 mmHg 69%
    22:00 +19°C° 0 mm 2 m/S 760 mmHg 71%
    23:00 +19°C° 0 mm 2 m/S 760 mmHg 70%

    25 Oktober, Mittwoch

    Zeit Temperatur Niederschläge Wind Luftdruck Luftfeuchtigkeit
    00:00 +19°C° 0 mm 3 m/S 760 mmHg 69%
    01:00 +18°C° 0 mm 3 m/S 760 mmHg 68%
    02:00 +18°C° 0 mm 3 m/S 760 mmHg 70%
    03:00 +17°C° 0 mm 3 m/S 760 mmHg 71%
    04:00 +17°C° 0 mm 3 m/S 759 mmHg 72%
    05:00 +18°C° 0 mm 2 m/S 760 mmHg 69%
    06:00 +19°C° 0 mm 2 m/S 760 mmHg 66%
    07:00 +22°C° 0 mm 1 m/S 760 mmHg 62%
    08:00 +25°C° 0 mm 1 m/S 760 mmHg 53%
    09:00 +27°C° 0 mm 1 m/S 760 mmHg 44%
    10:00 +30°C° 0 mm 1 m/S 759 mmHg 35%
    11:00 +31°C° 0 mm 2 m/S 759 mmHg 33%
    12:00 +33°C° 0 mm 3 m/S 758 mmHg 31%
    13:00 +33°C° 0 mm 3 m/S 757 mmHg 29%
    14:00 +30°C° 0,3 mm 3 m/S 757 mmHg 41%
    15:00 +28°C° 0,3 mm 4 m/S 756 mmHg 54%
    16:00 +25°C° 0,3 mm 4 m/S 756 mmHg 66%
    17:00 +23°C° 0,9 mm 4 m/S 756 mmHg 73%
    18:00 +21°C° 0,9 mm 4 m/S 757 mmHg 79%
    19:00 +20°C° 0,9 mm 4 m/S 757 mmHg 86%
    20:00 +19°C° 0 mm 5 m/S 756 mmHg 87%
    21:00 +19°C° 0 mm 5 m/S 756 mmHg 88%
    22:00 +19°C° 0 mm 5 m/S 756 mmHg 89%
    23:00 +18°C° 0 mm 4 m/S 755 mmHg 89%
    Mehr zeigen